This demonstration page uses our WeatherBlox Daily Observations layout. Learn more.

Hourly Observations for June 9, 2018

Temp ( °F °C ) Dew Point ( °F °C ) Humidity (%) Winds ( mph kmh ) Pressure ( in mb ) Visibility ( mi km ) Precip ( " mm )
12:15 am 00:15 Clear 75 24 67 19.6 76 76 SSE 8 13 29.85 1011 10 16.0934 0 0
12:35 am 00:35 Clear 75 23.7 67 19.2 76 76 SSE 13 20 29.83 1010 10 16.0934 0 0
12:55 am 00:55 Clear 75 24 66 19 74 74 SSE 14 22 29.83 1010 10 16.0934 0 0
1:15 am 01:15 Clear 76 24.5 66 18.9 71 71 SSE 16 26 29.8 1009 10 16.0934 0 0
1:35 am 01:35 Clear 76 24.2 65 18.6 71 71 SSE 9 15 29.83 1010 10 16.0934 0 0
1:55 am 01:55 Clear 74 23.6 65 18.5 73 73 SSE 10 17 29.83 1010 10 16.0934 0 0
2:15 am 02:15 Partly Cloudy 73 23 64 17.5 71 71 N 37 59 29.94 1014 10 16.0934 0 0
2:35 am 02:35 Mostly Cloudy 67 19.7 57 13.7 68 68 NNE 26 43 30 1016 10 16.0934 0 0
2:55 am 02:55 Partly Cloudy 67 19.2 57 13.8 71 71 NE 22 35 29.97 1015 10 16.0934 0 0
3:15 am 03:15 Clear 65 18.5 57 13.9 75 75 ENE 17 28 29.94 1014 10 16.0934 0 0
3:35 am 03:35 Clear 64 17.8 57 14 79 79 ENE 16 26 29.94 1014 10 16.0934 0 0
3:55 am 03:55 Clear 63 17.2 58 14.3 83 83 ENE 17 28 29.91 1013 10 16.0934 0 0
4:15 am 04:15 Clear 63 17 58 14.5 85 85 E 15 24 29.91 1013 10 16.0934 0 0
4:35 am 04:35 Clear 62 16.8 58 14.7 88 88 E 8 13 29.94 1014 10 16.0934 0 0
4:55 am 04:55 Clear 62 16.5 59 15 91 91 ESE 7 11 29.97 1015 10 16.0934 0 0
5:15 am 05:15 Clear 62 16.5 59 15.2 92 92 ESE 10 17 29.97 1015 10 16.0934 0 0
5:35 am 05:35 Clear 62 16.5 59 15.2 92 92 E 12 19 29.97 1015 10 16.0934 0 0
5:55 am 05:55 Clear 62 16.5 60 15.3 93 93 ESE 10 17 29.97 1015 10 16.0934 0 0
6:15 am 06:15 Sunny 62 16.5 60 15.3 93 93 SE 8 13 29.94 1014 10 16.0934 0 0
6:35 am 06:35 Sunny 62 16.8 60 15.5 92 92 SE 13 20 29.94 1014 10 16.0934 0 0
6:55 am 06:55 Sunny 63 17.1 60 15.5 90 90 SSE 12 19 29.91 1013 10 16.0934 0 0
7:15 am 07:15 Sunny 64 17.9 60 15.7 87 87 SSE 16 26 29.91 1013 10 16.0934 0 0
7:35 am 07:35 Sunny 66 19.1 60 15.7 81 81 SSE 14 22 29.91 1013 10 16.0934 0 0
7:55 am 07:55 Sunny 68 20.1 60 15.7 76 76 SSE 17 28 29.88 1012 10 16.0934 0 0
8:15 am 08:15 Sunny 70 21.1 60 15.6 71 71 SSE 17 28 29.88 1012 10 16.0934 0 0
8:35 am 08:35 Sunny 71 21.7 60 15.8 69 69 SE 18 30 29.85 1011 10 16.0934 0 0
8:55 am 08:55 Sunny 72 22.4 61 16.2 68 68 SE 17 28 29.85 1011 10 16.0934 0 0
9:15 am 09:15 Sunny 75 24 62 16.7 64 64 SSE 20 31 29.83 1010 10 16.0934 0 0
9:35 am 09:35 Sunny 75 24.1 63 17 65 65 S 22 35 29.85 1011 10 16.0934 0 0
9:55 am 09:55 Sunny 74 23.3 63 17.3 69 69 S 21 33 29.83 1010 10 16.0934 0 0
10:15 am 10:15 Sunny 74 23.5 64 17.7 70 70 SSE 21 33 29.83 1010 10 16.0934 0 0
10:35 am 10:35 Sunny 77 25.2 65 18.4 66 66 S 20 31 29.83 1010 10 16.0934 0 0
10:55 am 10:55 Sunny 78 25.5 66 18.7 66 66 S 17 28 29.83 1010 10 16.0934 0 0
11:15 am 11:15 Sunny 79 25.9 66 19.1 66 66 S 14 22 29.83 1010 10 16.0934 0 0
11:35 am 11:35 Sunny 80 26.6 67 19.3 64 64 S 13 20 29.8 1009 10 16.0934 0 0
11:55 am 11:55 Sunny 81 27.1 67 19.5 63 63 S 9 15 29.8 1009 10 16.0934 0 0
12:15 pm 12:15 Sunny 81 27.4 67 19.3 61 61 S 12 19 29.8 1009 10 16.0934 0 0
12:35 pm 12:35 Sunny 82 27.8 67 19.5 61 61 S 8 13 29.8 1009 10 16.0934 0 0
12:55 pm 12:55 Sunny 83 28.6 67 19.4 58 58 S 8 13 29.77 1008 10 16.0934 0 0
1:15 pm 13:15 Sunny 85 29.5 67 19.2 54 54 S 8 13 29.77 1008 10 16.0934 0 0
1:35 pm 13:35 Sunny 86 30.1 65 18.4 50 50 S 7 11 29.74 1007 10 16.0934 0 0
1:55 pm 13:55 Sunny 87 30.5 64 17.5 46 46 SSE 9 15 29.74 1007 10 16.0934 0 0
2:15 pm 14:15 Sunny 88 31 63 17.2 44 44 S 5 7 29.71 1006 10 16.0934 0 0
2:35 pm 14:35 Sunny 88 31.2 66 18.8 48 48 SSE 8 13 29.71 1006 10 16.0934 0 0
2:55 pm 14:55 Sunny 89 31.6 65 18.1 45 45 ESE 8 13 29.71 1006 10 16.0934 0 0
3:15 pm 15:15 Sunny 90 32.2 64 17.5 41 41 SSE 8 13 29.71 1006 10 16.0934 0 0
3:35 pm 15:35 Sunny 91 32.7 63 17.3 40 40 S 9 15 29.68 1005 10 16.0934 0 0
3:55 pm 15:55 Sunny 91 32.7 63 17.2 40 40 S 14 22 29.68 1005 10 16.0934 0 0
4:15 pm 16:15 Sunny 92 33.4 61 16.3 36 36 S 12 19 29.65 1004 10 16.0934 0 0
4:35 pm 16:35 Sunny 92 33.6 61 16.3 35 35 SE 10 17 29.65 1004 10 16.0934 0 0
4:55 pm 16:55 Sunny 91 33 61 16.1 36 36 SE 9 15 29.65 1004 10 16.0934 0 0
5:15 pm 17:15 Sunny 92 33.2 60 15.7 35 35 S 8 13 29.62 1003 10 16.0934 0 0
5:35 pm 17:35 Sunny 92 33.4 62 16.4 36 36 SSE 13 20 29.62 1003 10 16.0934 0 0
5:55 pm 17:55 Sunny 92 33.3 62 16.7 37 37 SE 14 22 29.62 1003 10 16.0934 0 0
6:15 pm 18:15 Sunny 92 33.5 62 16.4 36 36 SSE 9 15 29.62 1003 10 16.0934 0 0
6:35 pm 18:35 Sunny 92 33.5 62 16.7 37 37 SE 12 19 29.62 1003 10 16.0934 0 0
6:55 pm 18:55 Sunny 92 33.5 62 16.6 36 36 SE 12 19 29.62 1003 10 16.0934 0 0
7:15 pm 19:15 Sunny 92 33.1 61 16.2 36 36 SE 12 19 29.62 1003 10 16.0934 0 0
7:35 pm 19:35 Sunny 91 32.7 63 17.1 39 39 ESE 10 17 29.59 1002 10 16.0934 0 0
7:55 pm 19:55 Sunny 90 32 63 17.1 41 41 ESE 9 15 29.62 1003 10 16.0934 0 0
8:15 pm 20:15 Partly Cloudy 87 30.6 65 18.3 48 48 E 7 11 29.62 1003 10 16.0934 0 0
8:35 pm 20:35 Cloudy 85 29.5 65 18.6 52 52 E 9 15 29.62 1003 10 16.0934 0 0
8:55 pm 20:55 Mostly Cloudy 84 28.7 65 18.4 54 54 ESE 8 13 29.62 1003 10 16.0934 0 0
9:15 pm 21:15 Partly Cloudy 82 27.6 65 18.4 57 57 E 6 9 29.65 1004 10 16.0934 0 0
9:35 pm 21:35 Mostly Cloudy 82 27.7 65 18.6 58 58 E 9 15 29.65 1004 10 16.0934 0 0
9:55 pm 21:55 Mostly Cloudy 82 28 65 18.5 56 56 E 10 17 29.65 1004 10 16.0934 0 0
10:15 pm 22:15 Cloudy 82 28 64 18 55 55 E 9 15 29.65 1004 10 16.0934 0 0
10:35 pm 22:35 Cloudy 82 28 65 18.1 55 55 NE 8 13 29.65 1004 10 16.0934 0 0
10:55 pm 22:55 Cloudy 80 26.9 68 19.9 66 66 ENE 13 20 29.68 1005 10 16.0934 0 0
11:15 pm 23:15 Partly Cloudy 81 27 66 18.8 61 61 ESE 15 24 29.65 1004 10 16.0934 0 0
11:35 pm 23:35 Clear 80 26.5 65 18.3 61 61 ESE 13 20 29.65 1004 10 16.0934 0 0
11:55 pm 23:55 Clear 79 26.1 64 17.9 61 61 ESE 13 20 29.65 1004 10 16.0934 0 0

Powered by AerisWeather